Weather History for PANT - October, 2012

Change the Weather History Date:

Tuesday, October 9, 2012

  Actual Average Record
Temperature  
Mean Temperature 46 °F 49 °F  
Max Temperature 51 °F 54 °F 62 °F (1993)
Min Temperature 41 °F 44 °F 33 °F (1972)
Degree Days  
Heating Degree Days 19 16  
Month to date heating degree days 115 138  
Since 1 July heating degree days 908 873  
Cooling Degree Days 0    
Month to date cooling degree days 0  
Year to date cooling degree days 7  
Moisture  
Dew Point 46 °F    
Average Humidity 0    
Maximum Humidity 0    
Minimum Humidity 0    
Precipitation  
Precipitation 0.00 in 0.42 in 3.65 in (1982)
Month to date precipitation 0.15 3.60  
Year to date precipitation 77.33 68.30  
Snow  
Snow 0.00 in 0.00 in T in (1993)
Month to date snowfall 0.0 0.0  
Since 1 July snowfall 0.0 0.0  
Since 1 September snowfall 0.0 0.0  
Snow Depth 0.00 in    
Sea Level Pressure  
Sea Level Pressure 30.05 in    
Wind  
Wind Speed 2 mph (SE)    
Max Wind Speed 7 mph    
Max Gust Speed 9 mph    
Visibility 7 miles    
Events Fog    
T = Trace of Precipitation, MM = Missing Value Source: NWS Daily Summary

Daily Weather History Graph

Daily Weather History Graph

Search for Another Location

Airport or City:

Trip Planner

Search our weather history database for the weather conditions in past years. The results will help you decide how hot, cold, wet, or windy it might be!

Date:

Astronomy

Oct. 09, 2012 Rise Set
Actual Time 7:05 AM AKDT 6:00 PM AKDT
Civil Twilight 6:29 AM AKDT 6:36 PM AKDT
Nautical Twilight 5:47 AM AKDT 7:18 PM AKDT
Astronomical Twilight 5:04 AM AKDT 8:00 PM AKDT
Moon No Moon Rise 3:22 PM AKDT (10/9)
Length of Visible Light 12h 07m
Length of Day
10h 54m
Waning Crescent, 35% of the Moon is Illuminated
Oct 9
Waning Crescent
Oct 15
New
Oct 21
First Quarter
Oct 29
Full
Nov 6
Last Quarter

Hourly Weather History & Observations

Time (AKDT) Temp. Windchill Dew Point Humidity Pressure Visibility Wind Dir Wind Speed Gust Speed Precip Events Conditions
12:53 AM 48.0 °F - 46.0 °F 93% 30.01 in 10.0 mi NNW 4.6 mph - N/A   Clear
1:53 AM 48.0 °F - 46.0 °F 93% 30.02 in 10.0 mi Calm Calm - N/A   Clear
2:53 AM 46.9 °F - 46.0 °F 97% 30.02 in 10.0 mi NW 4.6 mph - N/A   Clear
3:53 AM 46.0 °F 43.9 °F 45.0 °F 96% 30.02 in 10.0 mi NW 4.6 mph - N/A   Clear
4:53 AM 45.0 °F - 43.0 °F 93% 30.03 in 10.0 mi Calm Calm - N/A   Clear
5:32 AM 44.6 °F - 42.8 °F 93% 30.03 in 2.5 mi Calm Calm - N/A   Partly Cloudy
5:53 AM 45.0 °F - 43.0 °F 93% 30.03 in 10.0 mi Calm Calm - N/A   Clear
6:53 AM 42.1 °F - 41.0 °F 96% 30.03 in 10.0 mi Calm Calm - N/A   Clear
7:00 AM 42.8 °F - 41.0 °F 93% 30.03 in 2.0 mi Calm Calm - N/A   Partly Cloudy
7:02 AM 42.8 °F - 39.2 °F 87% 30.03 in 0.8 mi Calm Calm - N/A   Mist
7:23 AM 42.8 °F - 42.8 °F 100% 30.03 in 1.0 mi Calm Calm - N/A   Mist
7:26 AM 42.8 °F - 42.8 °F 100% 30.03 in 0.2 mi Calm Calm - N/A Fog Fog
7:53 AM 46.0 °F - 45.0 °F 96% 30.04 in 0.2 mi Calm Calm - N/A Fog Fog
8:18 AM 46.4 °F - 46.4 °F 100% 30.04 in 0.2 mi Calm Calm - N/A Fog Fog
8:51 AM 48.2 °F - 48.2 °F 100% 30.05 in 0.5 mi SE 3.5 mph - N/A Fog Fog
8:53 AM 48.0 °F - 48.0 °F 100% 30.05 in 0.8 mi Calm Calm - N/A   Mist
9:00 AM 48.2 °F - 48.2 °F 100% 30.05 in 1.2 mi SE 3.5 mph - N/A   Overcast
9:20 AM 48.2 °F - 48.2 °F 100% 30.05 in 4.0 mi Calm Calm - N/A   Overcast
9:53 AM 48.0 °F - 48.0 °F 100% 30.05 in 5.0 mi ESE 3.5 mph - N/A   Overcast
10:09 AM 48.2 °F - 48.2 °F 100% 30.05 in 1.8 mi ESE 4.6 mph - N/A   Overcast
10:17 AM 48.2 °F - 48.2 °F 100% 30.05 in 3.0 mi Calm Calm - N/A   Overcast
10:53 AM 48.9 °F - 46.9 °F 93% 30.06 in 10.0 mi ESE 3.5 mph - N/A   Overcast
11:53 AM 48.9 °F - 48.0 °F 97% 30.06 in 10.0 mi Calm Calm - N/A   Overcast
12:11 PM 50.0 °F - 46.4 °F 87% 30.06 in 10.0 mi Calm Calm - N/A   Overcast
12:53 PM 50.0 °F - 46.9 °F 89% 30.07 in 10.0 mi SE 4.6 mph - N/A   Overcast
1:15 PM 50.0 °F - 46.4 °F 87% 30.06 in 10.0 mi SSE 4.6 mph - N/A   Overcast
1:53 PM 50.0 °F - 46.9 °F 89% 30.07 in 10.0 mi ESE 5.8 mph - N/A   Overcast
2:53 PM 51.1 °F - 46.9 °F 86% 30.07 in 10.0 mi Calm Calm - N/A   Overcast
3:53 PM 50.0 °F - 46.9 °F 89% 30.07 in 10.0 mi Variable 3.5 mph - N/A   Overcast
4:35 PM 48.2 °F - 46.4 °F 93% 30.07 in 10.0 mi SSE 4.6 mph - N/A   Overcast
4:53 PM 48.9 °F - 46.9 °F 93% 30.07 in 10.0 mi South 5.8 mph - N/A   Overcast
5:53 PM 48.0 °F - 48.0 °F 100% 30.08 in 5.0 mi Calm Calm - N/A   Overcast
6:53 PM 48.9 °F - 46.9 °F 93% 30.07 in 10.0 mi SE 3.5 mph - N/A   Overcast
7:53 PM 50.0 °F - 46.9 °F 89% 30.07 in 10.0 mi ESE 3.5 mph - N/A   Overcast
8:37 PM 48.2 °F - 46.4 °F 93% 30.07 in 10.0 mi Calm Calm - N/A   Overcast
8:53 PM 48.9 °F - 48.0 °F 97% 30.08 in 9.0 mi Calm Calm - N/A   Overcast
9:39 PM 48.2 °F - 48.2 °F 100% 30.07 in 10.0 mi Calm Calm - N/A   Overcast
9:53 PM 48.9 °F - 46.9 °F 93% 30.08 in 10.0 mi ESE 3.5 mph - N/A   Overcast
10:03 PM 48.2 °F - 46.4 °F 93% 30.08 in 10.0 mi ESE 4.6 mph - N/A   Overcast
10:53 PM 48.9 °F - 46.0 °F 90% 30.08 in 10.0 mi Calm Calm - N/A   Overcast
11:53 PM 48.9 °F - 46.0 °F 90% 30.08 in 10.0 mi Calm Calm - N/A   Overcast